Change the Weather History Date:

Tuesday, April 23, 2013

  Actual Average Record
Temperature  
Mean Temperature 54 °F -  
Max Temperature 66 °F 63 °F 66 °F (2013)
Min Temperature 41 °F 41 °F 32 °F (2014)
Degree Days  
Heating Degree Days 12    
Growing Degree Days 4 (Base 50)    
Moisture  
Dew Point 46 °F    
Average Humidity 78    
Maximum Humidity 100    
Minimum Humidity 55    
Precipitation  
Precipitation 1.10 in - - ()
Sea Level Pressure  
Sea Level Pressure 29.97 in    
Wind  
Wind Speed 9 mph (South)    
Max Wind Speed 22 mph    
Max Gust Speed 31 mph    
Visibility 8 miles    
Events Rain    
Averages and records for this station are not official NWS values.
T = Trace of Precipitation, MM = Missing Value Source: NWS Daily Summary

Daily Weather History Graph

Daily Weather History Graph

Search for Another Location

Airport or City:

Trip Planner

Search our weather history database for the weather conditions in past years. The results will help you decide how hot, cold, wet, or windy it might be!

Date:

Astronomy

Apr. 23, 2013 Rise Set
Actual Time 6:54 AM EDT 8:33 PM EDT
Civil Twilight 6:25 AM EDT 9:02 PM EDT
Nautical Twilight 5:50 AM EDT 9:37 PM EDT
Astronomical Twilight 5:13 AM EDT 10:15 PM EDT
Moon 6:27 PM EDT (4/23) 5:23 AM EDT (4/23)
Length of Visible Light 14h 37m
Length of Day
13h 38m
Waxing Gibbous, 94% of the Moon is Illuminated
Apr 23
Waxing Gibbous
Apr 25
Full
May 2
Last Quarter
May 9
New
May 18
First Quarter

Hourly Weather History & Observations

Time (EDT) Temp. Windchill Dew Point Humidity Pressure Visibility Wind Dir Wind Speed Gust Speed Precip Events Conditions
12:15 AM 44.6 °F 41.4 °F 37.4 °F 76% 30.11 in 10.0 mi ESE 5.8 mph - N/A   Clear
12:35 AM 46.4 °F 44.3 °F 39.2 °F 76% 30.11 in 10.0 mi ESE 4.6 mph - N/A   Clear
12:55 AM 46.4 °F 45.2 °F 39.2 °F 76% 30.11 in 10.0 mi ESE 3.5 mph - N/A   Clear
1:15 AM 44.6 °F 42.2 °F 37.4 °F 76% 30.11 in 10.0 mi SE 4.6 mph - N/A   Clear
1:35 AM 44.6 °F 41.4 °F 37.4 °F 76% 30.10 in 10.0 mi SE 5.8 mph - N/A   Clear
1:55 AM 46.4 °F 42.4 °F 39.2 °F 76% 30.10 in 10.0 mi SE 8.1 mph - N/A   Clear
2:15 AM 46.4 °F 41.9 °F 39.2 °F 76% 30.09 in 10.0 mi SE 9.2 mph - N/A   Clear
2:35 AM 46.4 °F 41.9 °F 39.2 °F 76% 30.08 in 10.0 mi SE 9.2 mph - N/A   Clear
2:55 AM 46.4 °F 42.9 °F 39.2 °F 76% 30.08 in 10.0 mi SE 6.9 mph - N/A   Clear
3:15 AM 46.4 °F 42.4 °F 39.2 °F 76% 30.08 in 10.0 mi SE 8.1 mph - N/A   Scattered Clouds
3:35 AM 46.4 °F 42.9 °F 39.2 °F 76% 30.07 in 10.0 mi SE 6.9 mph - N/A   Scattered Clouds
3:55 AM 46.4 °F 42.9 °F 39.2 °F 76% 30.06 in 10.0 mi SE 6.9 mph - N/A   Clear
4:15 AM 46.4 °F 42.4 °F 39.2 °F 76% 30.05 in 10.0 mi SE 8.1 mph - N/A   Clear
4:35 AM 48.2 °F - 39.2 °F 71% 30.03 in 10.0 mi SE 9.2 mph - N/A   Clear
4:55 AM 48.2 °F - 39.2 °F 71% 30.03 in 10.0 mi SSE 9.2 mph - N/A   Clear
5:15 AM 46.4 °F 42.4 °F 39.2 °F 76% 30.03 in 10.0 mi SSE 8.1 mph - N/A   Clear
5:35 AM 50.0 °F - 41.0 °F 71% 30.05 in 10.0 mi South 6.9 mph - N/A   Mostly Cloudy
5:55 AM 50.0 °F - 41.0 °F 71% 30.05 in 10.0 mi SSE 6.9 mph - N/A   Overcast
6:15 AM 50.0 °F - 41.0 °F 71% 30.03 in 10.0 mi SSE 8.1 mph - N/A   Mostly Cloudy
6:55 AM 50.0 °F - 41.0 °F 71% 30.02 in 10.0 mi South 9.2 mph - N/A   Clear
7:15 AM 51.8 °F - 41.0 °F 67% 30.01 in 10.0 mi SSE 9.2 mph - N/A   Scattered Clouds
7:35 AM 51.8 °F - 41.0 °F 67% 30.02 in 10.0 mi South 9.2 mph - N/A   Mostly Cloudy
7:55 AM 51.8 °F - 42.8 °F 71% 30.04 in 10.0 mi South 9.2 mph - N/A   Overcast
8:15 AM 53.6 °F - 41.0 °F 62% 30.03 in 10.0 mi South 10.4 mph - N/A   Overcast
8:35 AM 55.4 °F - 42.8 °F 63% 30.03 in 10.0 mi South 11.5 mph - N/A   Overcast
8:55 AM 55.4 °F - 42.8 °F 63% 30.03 in 10.0 mi South 11.5 mph - N/A   Overcast
9:15 AM 55.4 °F - 42.8 °F 63% 30.02 in 10.0 mi South 10.4 mph - N/A   Overcast
9:35 AM 55.4 °F - 42.8 °F 63% 30.02 in 10.0 mi South 11.5 mph - N/A   Overcast
9:55 AM 57.2 °F - 42.8 °F 59% 30.02 in 10.0 mi South 12.7 mph - N/A   Overcast
10:15 AM 59.0 °F - 44.6 °F 59% 30.01 in 10.0 mi South 13.8 mph - N/A   Scattered Clouds
10:35 AM 59.0 °F - 44.6 °F 59% 30.01 in 10.0 mi South 12.7 mph - N/A   Scattered Clouds
10:55 AM 60.8 °F - 46.4 °F 59% 30.01 in 10.0 mi South 12.7 mph - N/A   Clear
11:15 AM 60.8 °F - 46.4 °F 59% 30.01 in 10.0 mi South 15.0 mph - N/A   Clear
11:35 AM 62.6 °F - 46.4 °F 55% 30.01 in 10.0 mi South 17.3 mph - N/A   Scattered Clouds
11:55 AM 62.6 °F - 46.4 °F 55% 30.01 in 10.0 mi South 13.8 mph - N/A   Scattered Clouds
12:15 PM 62.6 °F - 48.2 °F 59% 30.00 in 10.0 mi South 15.0 mph - N/A   Scattered Clouds
12:35 PM 62.6 °F - 48.2 °F 59% 29.99 in 10.0 mi SSW 15.0 mph - N/A   Clear
12:55 PM 64.4 °F - 50.0 °F 59% 29.98 in 10.0 mi South 15.0 mph - N/A   Scattered Clouds
1:15 PM 64.4 °F - 50.0 °F 59% 29.96 in 10.0 mi South 15.0 mph - N/A   Mostly Cloudy
1:35 PM 66.2 °F - 50.0 °F 56% 29.95 in 10.0 mi SSW 15.0 mph - N/A   Scattered Clouds
1:55 PM 64.4 °F - 50.0 °F 59% 29.94 in 10.0 mi SSW 18.4 mph 25.3 mph N/A   Mostly Cloudy
2:15 PM 62.6 °F - 50.0 °F 63% 29.94 in 10.0 mi SSW 17.3 mph 24.2 mph N/A   Mostly Cloudy
2:35 PM 62.6 °F - 50.0 °F 63% 29.94 in 10.0 mi SSW 20.7 mph 31.1 mph N/A Rain Rain
2:55 PM 59.0 °F - 53.6 °F 82% 29.96 in 7.0 mi SW 21.9 mph - N/A Rain Rain
3:15 PM 57.2 °F - 53.6 °F 88% 29.96 in 7.0 mi SW 17.3 mph 25.3 mph 0.01 in Rain Light Rain
3:35 PM 57.2 °F - 53.6 °F 88% 29.95 in 7.0 mi SW 13.8 mph 18.4 mph 0.02 in Rain Light Rain
3:55 PM 55.4 °F - 53.6 °F 94% 29.95 in 7.0 mi SW 12.7 mph 20.7 mph 0.03 in Rain Light Rain
4:15 PM 55.4 °F - 53.6 °F 94% 29.94 in 7.0 mi SSW 9.2 mph - N/A Rain Light Rain
4:35 PM 55.4 °F - 53.6 °F 94% 29.92 in 7.0 mi SSW 10.4 mph - 0.01 in Rain Rain
4:55 PM 57.2 °F - 55.4 °F 94% 29.92 in 5.0 mi SSW 10.4 mph - 0.02 in Rain Light Rain
5:15 PM 57.2 °F - 53.6 °F 88% 29.91 in 7.0 mi SSW 12.7 mph - N/A   Drizzle
5:35 PM 55.4 °F - 53.6 °F 94% 29.90 in 7.0 mi South 11.5 mph - 0.01 in Rain Rain
5:55 PM 55.4 °F - 53.6 °F 94% 29.89 in 7.0 mi South 10.4 mph - 0.01 in Rain Rain
6:15 PM 55.4 °F - 53.6 °F 94% 29.88 in 5.0 mi South 10.4 mph - 0.02 in Rain Heavy Rain
6:35 PM 55.4 °F - 53.6 °F 94% 29.88 in 5.0 mi SSW 6.9 mph - 0.04 in Rain Rain
6:55 PM 55.4 °F - 53.6 °F 94% 29.88 in 4.0 mi SSW 4.6 mph - 0.09 in Rain Rain
7:15 PM 55.4 °F - 53.6 °F 94% 29.86 in 2.5 mi Calm Calm - 0.04 in Rain Heavy Rain
7:35 PM 53.6 °F - 53.6 °F 100% 29.84 in 1.2 mi Calm Calm - 0.15 in Rain Heavy Rain
7:55 PM 53.6 °F - 53.6 °F 100% 29.83 in 1.2 mi Calm Calm - 0.25 in Rain Rain
8:15 PM 53.6 °F - 53.6 °F 100% 29.82 in 2.5 mi South 10.4 mph - 0.04 in Rain Light Rain
8:35 PM 55.4 °F - 53.6 °F 94% 29.81 in 7.0 mi SSE 10.4 mph 17.3 mph 0.05 in   Heavy Drizzle
8:55 PM 55.4 °F - 53.6 °F 94% 29.81 in 5.0 mi SSE 9.2 mph - 0.07 in Rain Rain
9:15 PM 55.4 °F - 53.6 °F 94% 29.82 in 4.0 mi South 11.5 mph - 0.03 in Rain Rain
9:35 PM 55.4 °F - 55.4 °F 100% 29.82 in 4.0 mi SSW 10.4 mph - 0.13 in Rain Rain
9:55 PM 53.6 °F - 51.8 °F 94% 29.84 in 1.8 mi NNW 18.4 mph 21.9 mph 0.36 in Rain Heavy Rain
10:15 PM 42.8 °F 34.8 °F 42.8 °F 100% 29.86 in 1.2 mi NNW 17.3 mph 20.7 mph 0.09 in Rain Light Rain
10:35 PM 42.8 °F 34.5 °F 41.0 °F 93% 29.85 in 3.0 mi North 18.4 mph 26.5 mph 0.18 in   Overcast
10:55 PM 42.8 °F 34.8 °F 41.0 °F 93% 29.86 in 10.0 mi North 17.3 mph 23.0 mph 0.18 in Rain Rain
11:15 PM 41.0 °F 33.1 °F 41.0 °F 100% 29.83 in 5.0 mi NNE 15.0 mph 23.0 mph 0.04 in Rain Light Rain
11:35 PM 42.8 °F 34.5 °F 41.0 °F 93% 29.85 in 5.0 mi North 18.4 mph 24.2 mph 0.07 in Rain Rain
11:55 PM 41.0 °F 33.5 °F 41.0 °F 100% 29.85 in 10.0 mi North 13.8 mph - 0.09 in Rain Rain